CamptonHillsWeather.com

Find the Weather for any City, State  
or Zipcode, or Country:

Campton Hills, IL Weather
Local Radar

Local Radar

Graphs, Details
Graphs and Gauges
Detailed Weather
Detailed Reports
Ajax Version (old)
Central Kane Co Summary
Davis Current Weather Graphs
Davis 24 Hour Weather History

CW3778 Data

Weather Underground
Maps
Temperature
Heat Index
Windchill
Humidity
Radar
Dew Point
Wind
Visibility
Visible Satellite
Satellite
Fronts
Snow Depth
Jet Stream
Flight Rules
Forecast Maps
Temperature Forecast
Maximum Temperature Forecast
Minimum Temperature Forecast
Dewpoint Forecast
Prevalent Weather
12Hr Probability of Precip.
Sky Cover
Health Maps
UV Forecast
Air Quality
Peak Air Quality Index
Weather Station
Davis Instruments Vantage Pro
Current Conditions [Select Refresh to Update]

Updated: 3:36pm on 11/25/14

(location)
Currently:
22.6F

Clear
Mostly Cloudy

High: 24.2 F< 
(1:28pm
Low: 19.1 F 
(4:28am)
Wind: W 2 mph
Light Air
Gust: 4 mph
Today's High Wind: 12 mph (12:36am)
Humidity: 86%
Pressure: 30.20 in  (Steady
Pressure Rate: 0.012 in/hr
Dew Point: 19.1F
Wind Chill: 20.6 F
Heat Index (feels like): 27.7 F
Comfort Level: Uncomfortably Cold
Temperature Rate:  -0.51F/hr
 
5 Day Forecast
 
Tue Wed Thu Fri Sat
Clear Clear Clear Clear Clear
Partly Cloudy Cloudy Partly Cloudy Mostly Cloudy Mostly Cloudy
28 32 27 37 50
19 23 19 27 30

Records and Normals
 
Temperature Forecast Normal Record
High 28 44 58
(2006)
Low 19 27 10
(2005)
 
Links
 
 
Weather Advisories
No Advisories
Full Advisory Text...
Weather Map

Web Cam

Almanac
 
Sunrise:  
6:56am
Moonrise: 
9:40am

Moon Phase:
10%

Sunset: 
4:26pm
Moonset:  
7:52pm
 Star Chart...
Rainfall Totals
Hourly Rain 0.00 in
Daily Rain: 0.00 in
Monthly Rain: 1.10 in
Yearly Rain: 35.22 in
Normal Rain, month to date: 1.03 in
Normal Rain, year to date: 28.86 in
Link to Village of Campton Hills Map

Link to Counties of Illinois Map

Local Weather Exchange Network
Station ID City 
(Click for Map Location)
Neighborhood 
(Click for History)
Last Update (Date & Time) Temperature
 ()
Dew
Point ()
Humidity 
(%)
Wind 
(mph)
from the Wind Gust 
(mph) 
Pressure(in) Hourly
Rain(in)
KILSTCHA10 St. Charles Hunt Club 11/25 15:31:59 23.2 16.0 75 0 NNW 2 29.71 0.00
KILGENEV6 Geneva Dover Ridge 11/25 15:32:00 22.8 18.0 82 9 WNW 9 30.18 0.00
KILSTCHA8 St. Charles Ronzheimer Ave. & S. Tyler Rd. 11/25 15:32:02 23.0 18.0 81 4 West 10 30.17 0.00
KILGENEV3 Geneva Mill Creek (NE) 11/25 15:32:02 23.0 19.0 83 6 West 13 30.26 0.00
KILSTCHA1 St Charles CamptonHillsWeather.com Central Kane County 11/25 15:32:03 22.6 19.0 86 2 West 4 30.20 0.00
KILSOUTH5 South Elgin Concord Park 11/25 15:26:12 23.2 21.0 92 4 SSW 0 29.90 0.00
KILGENEV2 Geneva Mill Creek 11/25 15:18:35 22.5 18.0 81 4 West 10 30.15 0.00
KILBATAV1 Batavia Tri-Cities on the Fox River 11/25 15:31:58 25.1 17.0 72 2 SSW 6 30.21 0.00
KILELBUR5 Elburn Prairie Highlands 11/25 15:30:15 23.2 19.0 85 2 WSW 7 30.20 0.00
KILBATAV3 Batavia West Batavia 11/25 15:21:24 22.5 18.0 83 2 West 0 30.18 0.00
KILELBUR6 Elburn Columbine Square 11/25 15:22:49 22.0 18.0 84 0 WSW 7 30.15 0.00
KILBATAV5 Batavia Fermi National Accelerator Laboratory 11/25 15:25:57 22.9 19.0 84 6 WSW 11 30.14 0.00
KILELBUR8 Elburn Columbine 11/25 15:28:11 21.9 19.0 87 5 WSW 11 30.17 0.00
KILWESTC8 West Chicago Ingalton Hills Estates 11/25 15:32:01 22.0 18.0 84 7 South 7 30.37 0.00
KILNORTH11 North Aurora Waterford Oaks 11/25 15:32:03 22.8 19.0 84 8 West 13 30.19 0.00
KILELGIN10 Elgin Wing Park 11/25 15:27:20 23.7 13.0 63 0 ESE 0 29.33 0.00
KILELGIN14 Elgin Elgin, IL 11/25 15:32:01 23.2 18.0 79 0 SW 3 30.07 0.00
KILCAROL5 Carol Stream Stonehenge Court 11/25 15:30:21 25.3 0.0 32 5 South 9 30.17 0.00
KILGILBE2 Gilberts Gilberts, IL 11/25 15:31:53 22.1 16.0 77 9 SW 11 30.25 0.00
KILELGIN11 Elgin Trout Park 11/25 15:31:55 23.4 12.0 61 8 South 8 30.15 0.00
KILWINFI3 Winfield Fredericksburg Farm 11/25 15:31:57 23.0 18.0 80 2 West 4 30.10 0.00
KILWINFI2 Winfield Winfield Heights (SarahNet) 11/25 15:31:36 23.9 19.0 81 0 WNW 5 30.18 0.00
KILSLEEP3 Sleepy Hollow SLEEPY HOLLOW 11/25 15:31:53 22.7 17.0 78 4 SW 4 29.63 0.00
KILCAROL6 Carol Stream Merbach Ct 11/25 15:32:00 23.9 17.0 75 4 North 12 29.75 0.00
KILSLEEP2 Sleepy Hollow Sleepy Hollow Manor 11/25 15:29:58 22.6 18.0 82 4 WSW 0 30.06 0.00
KILWARRE2 Warrenville meso_neigh26 11/25 15:32:02 24.3 19.0 80 3 WNW 7 30.17 0.00
KILSTREA12 Streamwood Petri Dish 11/25 15:31:35 24.1 15.0 69 4 SW 0 30.26 0.00
KILWHEAT8 Wheaton Wheaton Sanitary District 11/25 15:30:21 25.7 21.0 83 8 West 8 30.19 0.00
KILWHEAT5 Wheaton N9ABF - West Wheaton 11/25 15:29:39 24.9 19.0 77 4 West 0 30.11 0.00
KILSCHAU9 Schaumburg Schaumburg West 11/25 15:32:02 23.4 23.0 99 4 West 9 30.00 0.00
KILEASTD2 East Dundee Rock Road Industrial Park 11/25 15:30:24 22.5 14.0 68 12 WSW 20 30.12 0.00
KILCARPE6 Carpentersville Carpentersville 11/25 15:31:40 23.5 18.0 78 6 West 6 29.26 0.00
KILWHEAT11 Wheaton Wheaton SW Orth Ct 11/25 15:31:58 28.3 20.0 71 1 NNW 2 30.24 0.00
KILNAPER19 Naperville Brookdale Lakes 11/25 15:32:02 24.7 19.0 78 1 West 6 30.10 0.00
KDPA Chicago DuPage Official Station 11/25 14:59:00 23.0 16.0 74 14 SW --- 30.14 ---
KARR Aurora Official Station 11/25 14:52:00 24.0 16.0 71 12 SW --- 30.18 ---
KDKB DeKalb Official Station 11/25 15:15:00 20.0 15.0 81 9 WSW --- 30.15 ---
KORD Chicago Official Station 11/25 14:51:00 25.0 16.0 69 12 WSW --- 30.16 ---
Full Advisory Text
No Warnings

Ambient Weather and Weather Underground
 Never base important decisions on this or any weather information obtained from the Internet
Updated Automatically by Ambient Weather's Virtual Weather Station  V13.01